London,

3:54 AM EDT on May 28, 2017 (GMT -0400)
London

Weather History for CYXU - October, 2013

Change the Weather History Date:

Wednesday, October 30, 2013

  Actual Average Record
Temperature  
Mean Temperature 44 °F -  
Max Temperature 57 °F 45 °F 71 °F (1999)
Min Temperature 32 °F 31 °F 28 °F (2002)
Degree Days  
Heating Degree Days 20    
Moisture  
Dew Point 38 °F    
Average Humidity 81    
Maximum Humidity 100    
Minimum Humidity 52    
Precipitation  
Precipitation 0.00 in 0.12 in - ()
Sea Level Pressure  
Sea Level Pressure 30.19 in    
Wind  
Wind Speed 5 mph ()    
Max Wind Speed 9 mph    
Max Gust Speed -    
Visibility 14.3 miles    
Events      
Averages and records for this station are not official NWS values.
T = Trace of Precipitation, MM = Missing Value Source: Averaged Metar Reports

Daily Weather History Graph

Daily Weather History Graph

Search for Another Location

Airport or City:

Trip Planner

Search our weather history database for the weather conditions in past years. The results will help you decide how hot, cold, wet, or windy it might be!

Date:

Astronomy

Oct. 30, 2013 Rise Set
Actual Time 7:56 AM EDT 6:18 PM EDT
Civil Twilight 7:27 AM EDT 6:48 PM EDT
Nautical Twilight 6:54 AM EDT 7:21 PM EDT
Astronomical Twilight 6:21 AM EDT 7:54 PM EDT
Moon 3:38 AM EDT (10/30) 4:08 PM EDT (10/30)
Length of Visible Light 11h 20m
Length of Day
10h 22m
Waning Crescent, 17% of the Moon is Illuminated
Oct 30
Waning Crescent
Nov 3
New
Nov 10
First Quarter
Nov 17
Full
Nov 25
Last Quarter

Hourly Weather History & Observations

Time (EDT) Temp. Windchill Dew Point Humidity Pressure Visibility Wind Dir Wind Speed Gust Speed Precip Events Conditions
12:00 AM 39.2 °F 33.6 °F 35.6 °F 87% 30.28 in 15.0 mi SE 8.1 mph - N/A   Overcast
1:00 AM 37.4 °F 34.9 °F 35.6 °F 93% 30.28 in 15.0 mi ENE 3.5 mph - N/A   Mostly Cloudy
2:00 AM 36 °F - 35 °F 94% 30.26 in 15 mi ENE 5.8 mph - -  
2:00 AM 35.6 °F 30.7 °F 35.6 °F 100% 30.26 in 15.0 mi ENE 5.8 mph - N/A   Mostly Cloudy
3:00 AM 35.6 °F 31.7 °F 33.8 °F 93% 30.25 in 15.0 mi East 4.6 mph - N/A   Scattered Clouds
4:00 AM 35.6 °F 31.7 °F 35.6 °F 100% 30.23 in 15.0 mi East 4.6 mph - N/A   Mostly Cloudy
5:00 AM 33.8 °F 30.8 °F 33.8 °F 100% 30.22 in 15.0 mi ENE 3.5 mph - N/A   Partly Cloudy
6:00 AM 33.8 °F 29.6 °F 33.8 °F 100% 30.23 in 15.0 mi ENE 4.6 mph - N/A   Clear
7:00 AM 33.8 °F 28.6 °F 32.0 °F 93% 30.23 in 15.0 mi ENE 5.8 mph - N/A   Clear
8:00 AM 32 °F - 31 °F 96% 30.22 in 15 mi East 5.8 mph - -  
8:00 AM 32.0 °F 27.5 °F 32.0 °F 100% 30.22 in 15.0 mi East 4.6 mph - N/A   Partly Cloudy
9:00 AM 35.6 °F 30.7 °F 33.8 °F 93% 30.24 in 10.0 mi East 5.8 mph - N/A   Partly Cloudy
10:00 AM 41.0 °F 37.1 °F 37.4 °F 87% 30.25 in 12.0 mi East 5.8 mph - N/A   Partly Cloudy
11:00 AM 46.4 °F 42.9 °F 41.0 °F 81% 30.24 in 15.0 mi SE 6.9 mph - N/A   Partly Cloudy
12:00 PM 51.8 °F - 42.8 °F 71% 30.23 in 15.0 mi ESE 2.3 mph - N/A   Mostly Cloudy
1:00 PM 53.6 °F - 42.8 °F 67% 30.19 in 15.0 mi ESE 3.5 mph - N/A   Mostly Cloudy
2:00 PM 55 °F - 42 °F 52% 30.18 in 15 mi ESE 3.5 mph - -  
2:00 PM 55.4 °F - 42.8 °F 63% 30.18 in 15.0 mi ESE 4.6 mph - N/A   Mostly Cloudy
3:00 PM 57.2 °F - 41.0 °F 55% 30.14 in 12.0 mi South 5.8 mph - N/A   Scattered Clouds
4:00 PM 57.2 °F - 42.8 °F 59% 30.13 in 15.0 mi SE 8.1 mph - N/A   Scattered Clouds
5:00 PM 57.2 °F - 41.0 °F 55% 30.13 in 15.0 mi South 9.2 mph - N/A   Scattered Clouds
6:00 PM 51.8 °F - 41.0 °F 67% 30.13 in 15.0 mi SSE 6.9 mph - N/A   Scattered Clouds
7:00 PM 50.0 °F - 39.2 °F 66% 30.13 in 12.0 mi SSE 5.8 mph - N/A   Partly Cloudy
8:00 PM 46 °F - 39 °F 70% 30.13 in 15 mi East 5.8 mph - -  
8:00 PM 46.4 °F 43.5 °F 39.2 °F 76% 30.13 in 15.0 mi ESE 5.8 mph - N/A   Partly Cloudy
9:00 PM 42.8 °F 39.3 °F 37.4 °F 81% 30.13 in 15.0 mi SE 5.8 mph - N/A   Mostly Cloudy
10:00 PM 44.6 °F 40.7 °F 39.2 °F 81% 30.10 in 15.0 mi SE 6.9 mph - N/A   Overcast
11:00 PM 46.4 °F 42.4 °F 41.0 °F 81% 30.07 in 10.0 mi East 8.1 mph - N/A   Overcast